| time (UTC) | temp C | wind direction | speed KPH | gust KPH | rain 1hr cm | rain 24hr cm | rain mn cm | humidity % | barometer mb |
| 20260507061746 | 7 | 114 | 3.2 | 3.2 | 0.00 | 0.00 | 0.00 | 99 | 1005.0 |
| 20260507060746 | 7 | 114 | 0.0 | 0.0 | 0.00 | 0.00 | 0.00 | 99 | 1005.0 |
| 20260507055747 | 7 | 324 | 0.0 | 0.0 | 0.00 | 0.00 | 0.00 | 99 | 1005.0 |
| 20260507054747 | 7 | 0 | 3.2 | 3.2 | 0.00 | 0.00 | 0.00 | 99 | 1005.0 |
| 20260507053746 | 7 | 120 | 0.0 | 0.0 | 0.00 | 0.00 | 0.00 | 99 | 1005.0 |
| 20260507052747 | 7 | 60 | 0.0 | 0.0 | 0.00 | 0.00 | 0.00 | 99 | 1005.0 |
| 20260507051747 | 7 | 96 | 0.0 | 0.0 | 0.00 | 0.00 | 0.00 | 99 | 1004.0 |
| 20260507050746 | 7 | 108 | 1.6 | 1.6 | 0.00 | 0.00 | 0.00 | 99 | 1004.0 |
| 20260507045746 | 7 | 108 | 0.0 | 0.0 | 0.00 | 0.00 | 0.00 | 99 | 1004.0 |
| 20260507044746 | 7 | 90 | 0.0 | 0.0 | 0.00 | 0.00 | 0.00 | 99 | 1004.0 |
| 20260507043746 | 7 | 102 | 0.0 | 0.0 | 0.00 | 0.00 | 0.00 | 99 | 1004.0 |
| 20260507042747 | 7 | 102 | 0.0 | 0.0 | 0.00 | 0.00 | 0.00 | 99 | 1004.0 |
| 20260507041746 | 7 | 108 | 0.0 | 0.0 | 0.00 | 0.00 | 0.00 | 99 | 1004.0 |
| 20260507040747 | 7 | 66 | 0.0 | 0.0 | 0.00 | 0.00 | 0.00 | 99 | 1004.0 |
| 20260507035746 | 7 | 66 | 0.0 | 0.0 | 0.00 | 0.00 | 0.00 | 99 | 1004.0 |
| 20260507034747 | 7 | 66 | 0.0 | 0.0 | 0.00 | 0.00 | 0.00 | 99 | 1004.0 |
| 20260507033747 | 7 | 126 | 0.0 | 0.0 | 0.00 | 0.00 | 0.00 | 99 | 1003.0 |
| 20260507032747 | 7 | 96 | 0.0 | 0.0 | 0.00 | 0.00 | 0.00 | 99 | 1003.0 |
| 20260507031746 | 7 | 84 | 0.0 | 0.0 | 0.00 | 0.00 | 0.00 | 99 | 1003.0 |
| 20260507030746 | 7 | 156 | 0.0 | 0.0 | 0.00 | 0.00 | 0.00 | 99 | 1003.0 |
| 20260507025747 | 7 | 126 | 0.0 | 0.0 | 0.00 | 0.00 | 0.00 | 99 | 1003.0 |
| 20260507024747 | 7 | 90 | 0.0 | 0.0 | 0.00 | 0.00 | 0.00 | 99 | 1003.0 |
| 20260507023746 | 7 | 78 | 1.6 | 1.6 | 0.00 | 0.00 | 0.00 | 99 | 1003.0 |
| 20260507022746 | 7 | 84 | 4.8 | 6.4 | 0.00 | 0.00 | 0.00 | 99 | 1003.0 |
| 20260507021747 | 7 | 102 | 3.2 | 3.2 | 0.00 | 0.00 | 0.00 | 99 | 1003.0 |
| 20260507020747 | 7 | 108 | 4.8 | 4.8 | 0.00 | 0.00 | 0.00 | 99 | 1003.0 |
| 20260507015747 | 7 | 114 | 3.2 | 3.2 | 0.00 | 0.00 | 0.00 | 99 | 1003.0 |
| 20260507014747 | 7 | 108 | 0.0 | 0.0 | 0.00 | 0.00 | 0.00 | 99 | 1003.0 |
| 20260507013747 | 7 | 12 | 0.0 | 0.0 | 0.00 | 0.00 | 0.00 | 99 | 1003.0 |
| 20260507012747 | 7 | 84 | 0.0 | 0.0 | 0.00 | 0.00 | 0.00 | 99 | 1003.0 |
| 20260507011746 | 7 | 198 | 0.0 | 0.0 | 0.00 | 0.00 | 0.00 | 99 | 1003.0 |
| 20260507010747 | 7 | 102 | 0.0 | 0.0 | 0.00 | 0.00 | 0.00 | 99 | 1003.0 |
| 20260507005746 | 7 | 84 | 1.6 | 1.6 | 0.00 | 0.00 | 0.00 | 99 | 1002.0 |
| 20260507004747 | 7 | 108 | 3.2 | 3.2 | 0.00 | 0.00 | 0.00 | 99 | 1002.0 |
| 20260507003746 | 7 | 96 | 6.4 | 6.4 | 0.00 | 0.00 | 0.00 | 99 | 1003.0 |
| 20260507002746 | 7 | 30 | 0.0 | 0.0 | 0.00 | 0.00 | 0.00 | 99 | 1002.0 |
| 20260507001746 | 7 | 132 | 0.0 | 0.0 | 0.00 | 0.00 | 0.00 | 99 | 1002.0 |
| 20260507000747 | 7 | 60 | 0.0 | 0.0 | 0.00 | 0.00 | 0.00 | 99 | 1002.0 |
| 20260506235746 | 7 | 216 | 0.0 | 0.0 | 0.00 | 0.00 | 0.00 | 99 | 1002.0 |
| 20260506234746 | 8 | 114 | 3.2 | 3.2 | 0.00 | 0.00 | 0.00 | 99 | 1002.0 |
| 20260506233747 | 8 | 90 | 0.0 | 0.0 | 0.00 | 0.00 | 0.00 | 99 | 1002.0 |
| 20260506232747 | 8 | 108 | 0.0 | 0.0 | 0.00 | 0.00 | 0.00 | 99 | 1002.0 |
| 20260506231746 | 8 | 48 | 4.8 | 4.8 | 0.00 | 0.00 | 0.00 | 99 | 1002.0 |
| 20260506230747 | 8 | 96 | 3.2 | 3.2 | 0.00 | 0.00 | 0.00 | 99 | 1002.0 |
| 20260506225746 | 8 | 90 | 0.0 | 0.0 | 0.00 | 0.00 | 0.00 | 99 | 1002.0 |
| 20260506224747 | 8 | 114 | 0.0 | 0.0 | 0.00 | 0.00 | 0.00 | 99 | 1002.0 |
| 20260506223746 | 8 | 78 | 0.0 | 0.0 | 0.00 | 0.00 | 0.00 | 99 | 1002.0 |
| 20260506222746 | 8 | 66 | 0.0 | 0.0 | 0.00 | 0.00 | 0.00 | 99 | 1002.0 |
| 20260506221746 | 8 | 354 | 0.0 | 0.0 | 0.00 | 0.00 | 0.00 | 99 | 1002.0 |
| 20260506220746 | 8 | 90 | 0.0 | 0.0 | 0.00 | 0.00 | 0.00 | 99 | 1002.0 |
| 20260506215746 | 8 | 126 | 0.0 | 0.0 | 0.00 | 0.00 | 0.00 | 99 | 1002.0 |
| 20260506214746 | 8 | 114 | 0.0 | 0.0 | 0.00 | 0.00 | 0.00 | 99 | 1002.0 |
| 20260506213746 | 8 | 78 | 0.0 | 0.0 | 0.00 | 0.00 | 0.00 | 99 | 1001.0 |
| 20260506212746 | 8 | 90 | 0.0 | 0.0 | 0.00 | 0.00 | 0.00 | 99 | 1002.0 |
| 20260506211746 | 8 | 60 | 3.2 | 3.2 | 0.00 | 0.00 | 0.00 | 99 | 1001.0 |
| 20260506210746 | 8 | 114 | 0.0 | 0.0 | 0.00 | 0.00 | 0.00 | 99 | 1001.0 |
| 20260506205746 | 8 | 114 | 0.0 | 0.0 | 0.00 | 0.00 | 0.00 | 99 | 1001.0 |
| 20260506204746 | 8 | 96 | 0.0 | 0.0 | 0.00 | 0.00 | 0.00 | 99 | 1001.0 |
| 20260506203746 | 8 | 48 | 0.0 | 0.0 | 0.00 | 0.00 | 0.00 | 99 | 1001.0 |
| 20260506202746 | 8 | 42 | 3.2 | 3.2 | 0.00 | 0.00 | 0.00 | 99 | 1001.0 |
| 20260506201746 | 8 | 132 | 0.0 | 0.0 | 0.00 | 0.00 | 0.00 | 99 | 1001.0 |
| 20260506200746 | 8 | 78 | 0.0 | 0.0 | 0.00 | 0.00 | 0.00 | 99 | 1001.0 |
| 20260506195746 | 8 | 72 | 3.2 | 3.2 | 0.00 | 0.00 | 0.00 | 99 | 1001.0 |
| 20260506194746 | 8 | 126 | 0.0 | 0.0 | 0.00 | 0.00 | 0.00 | 99 | 1001.0 |
| 20260506193746 | 8 | 66 | 0.0 | 0.0 | 0.00 | 0.00 | 0.00 | 99 | 1001.0 |
| 20260506192746 | 8 | 108 | 1.6 | 1.6 | 0.00 | 0.00 | 0.00 | 99 | 1001.0 |
| 20260506191746 | 8 | 102 | 0.0 | 0.0 | 0.00 | 0.00 | 0.00 | 99 | 1001.0 |
| 20260506190746 | 8 | 78 | 0.0 | 0.0 | 0.00 | 0.00 | 0.00 | 99 | 1001.0 |
| 20260506185746 | 8 | 30 | 0.0 | 0.0 | 0.00 | 0.00 | 0.00 | 99 | 1001.0 |
| 20260506184746 | 8 | 78 | 0.0 | 0.0 | 0.00 | 0.00 | 0.00 | 99 | 1000.0 |
| 20260506183746 | 8 | 258 | 3.2 | 3.2 | 0.00 | 0.00 | 0.00 | 99 | 1000.0 |
| 20260506182746 | 8 | 132 | 0.0 | 0.0 | 0.00 | 0.00 | 0.00 | 99 | 1000.0 |
| 20260506181746 | 8 | 90 | 3.2 | 3.2 | 0.00 | 0.00 | 0.00 | 99 | 1000.0 |
| 20260506180746 | 8 | 192 | 1.6 | 1.6 | 0.00 | 0.00 | 0.00 | 99 | 1000.0 |
| 20260506175746 | 8 | 36 | 0.0 | 0.0 | 0.00 | 0.00 | 0.00 | 99 | 1000.0 |
| 20260506174746 | 8 | 336 | 0.0 | 0.0 | 0.00 | 0.00 | 0.00 | 99 | 1000.0 |
| 20260506173746 | 8 | 96 | 0.0 | 0.0 | 0.00 | 0.00 | 0.00 | 99 | 1000.0 |
| 20260506172746 | 8 | 348 | 4.8 | 4.8 | 0.00 | 0.00 | 0.00 | 99 | 1000.0 |
| 20260506171746 | 8 | 78 | 0.0 | 0.0 | 0.00 | 0.00 | 0.00 | 99 | 1000.0 |
| 20260506170746 | 8 | 66 | 0.0 | 0.0 | 0.00 | 0.00 | 0.00 | 99 | 1000.0 |
| 20260506165746 | 8 | 114 | 0.0 | 0.0 | 0.00 | 0.00 | 0.00 | 99 | 999.0 |
| 20260506164746 | 8 | 96 | 4.8 | 4.8 | 0.00 | 0.00 | 0.00 | 99 | 1000.0 |
| 20260506163746 | 8 | 132 | 0.0 | 0.0 | 0.00 | 0.00 | 0.00 | 99 | 999.0 |
| 20260506162746 | 8 | 102 | 0.0 | 0.0 | 0.00 | 0.00 | 0.00 | 99 | 999.0 |
| 20260506161747 | 8 | 48 | 1.6 | 1.6 | 0.00 | 0.00 | 0.00 | 99 | 999.0 |
| 20260506160746 | 8 | 204 | 3.2 | 3.2 | 0.00 | 0.00 | 0.00 | 99 | 999.0 |
| 20260506155746 | 9 | 60 | 0.0 | 0.0 | 0.00 | 0.00 | 0.00 | 99 | 999.0 |
| 20260506154746 | 9 | 126 | 0.0 | 0.0 | 0.00 | 0.00 | 0.00 | 99 | 999.0 |
| 20260506153746 | 9 | 42 | 6.4 | 6.4 | 0.00 | 0.00 | 0.00 | 99 | 999.0 |
| 20260506152746 | 9 | 246 | 3.2 | 3.2 | 0.00 | 0.00 | 0.00 | 99 | 999.0 |
| 20260506151746 | 9 | 42 | 0.0 | 0.0 | 0.00 | 0.00 | 0.00 | 99 | 999.0 |
| 20260506150746 | 9 | 96 | 0.0 | 0.0 | 0.00 | 0.00 | 0.00 | 99 | 999.0 |
| 20260506145746 | 9 | 54 | 0.0 | 0.0 | 0.00 | 0.00 | 0.00 | 99 | 999.0 |
| 20260506144746 | 9 | 78 | 3.2 | 3.2 | 0.00 | 0.00 | 0.00 | 99 | 999.0 |
| 20260506143746 | 9 | 120 | 0.0 | 0.0 | 0.00 | 0.00 | 0.00 | 99 | 999.0 |
| 20260506142746 | 9 | 144 | 0.0 | 0.0 | 0.00 | 0.00 | 0.00 | 99 | 999.0 |
| 20260506141746 | 10 | 174 | 3.2 | 3.2 | 0.00 | 0.00 | 0.00 | 99 | 999.0 |
| 20260506140746 | 9 | 318 | 3.2 | 3.2 | 0.00 | 0.00 | 0.00 | 99 | 999.0 |
| 20260506135746 | 9 | 42 | 0.0 | 0.0 | 0.00 | 0.00 | 0.00 | 99 | 998.0 |
| 20260506134746 | 10 | 114 | 6.4 | 6.4 | 0.00 | 0.00 | 0.00 | 99 | 998.0 |
| 20260506133746 | 10 | 90 | 4.8 | 4.8 | 0.00 | 0.00 | 0.00 | 99 | 999.0 |
| 20260506132746 | 10 | 60 | 3.2 | 3.2 | 0.00 | 0.00 | 0.00 | 99 | 998.0 |
| 20260506131746 | 10 | 78 | 0.0 | 0.0 | 0.00 | 0.00 | 0.00 | 99 | 999.0 |
| 20260506130746 | 10 | 102 | 1.6 | 1.6 | 0.00 | 0.00 | 0.00 | 99 | 998.0 |
| 20260506125746 | 10 | 84 | 0.0 | 0.0 | 0.00 | 0.00 | 0.00 | 99 | 998.0 |
| 20260506124746 | 10 | 60 | 4.8 | 4.8 | 0.00 | 0.00 | 0.00 | 99 | 998.0 |
| 20260506123746 | 10 | 173 | 0.0 | 0.0 | 0.00 | 0.00 | 0.00 | 99 | 998.0 |
| 20260506122746 | 10 | 114 | 3.2 | 3.2 | 0.00 | 0.00 | 0.00 | 99 | 998.0 |
| 20260506121746 | 10 | 120 | 3.2 | 3.2 | 0.00 | 0.00 | 0.00 | 99 | 998.0 |
| 20260506120746 | 10 | 152 | 3.2 | 3.2 | 0.00 | 0.00 | 0.00 | 99 | 998.0 |
| 20260506115746 | 10 | 282 | 4.8 | 4.8 | 0.00 | 0.00 | 0.00 | 99 | 998.0 |
| 20260506114746 | 10 | 102 | 4.8 | 4.8 | 0.00 | 0.00 | 0.00 | 99 | 998.0 |
| 20260506113746 | 10 | 102 | 0.0 | 0.0 | 0.00 | 0.00 | 0.00 | 99 | 998.0 |
| 20260506112746 | 10 | 156 | 1.6 | 1.6 | 0.00 | 0.00 | 0.00 | 99 | 998.0 |
| 20260506111746 | 10 | 72 | 3.2 | 3.2 | 0.00 | 0.00 | 0.00 | 99 | 998.0 |
| 20260506110746 | 10 | 54 | 0.0 | 0.0 | 0.00 | 0.00 | 0.00 | 99 | 998.0 |
| 20260506105746 | 10 | 210 | 0.0 | 0.0 | 0.00 | 0.00 | 0.00 | 99 | 998.0 |
| 20260506104746 | 10 | 90 | 1.6 | 1.6 | 0.00 | 0.00 | 0.00 | 99 | 998.0 |
| 20260506103746 | 10 | 84 | 0.0 | 0.0 | 0.00 | 0.00 | 0.00 | 99 | 998.0 |
| 20260506102746 | 10 | 180 | 0.0 | 0.0 | 0.00 | 0.00 | 0.00 | 99 | 998.0 |
| 20260506101746 | 10 | 60 | 0.0 | 0.0 | 0.00 | 0.00 | 0.00 | 99 | 998.0 |
| 20260506100746 | 10 | 78 | 0.0 | 0.0 | 0.00 | 0.00 | 0.00 | 99 | 997.0 |
| 20260506095746 | 11 | 54 | 0.0 | 0.0 | 0.00 | 0.00 | 0.00 | 99 | 997.0 |
| 20260506094746 | 11 | 6 | 0.0 | 0.0 | 0.00 | 0.00 | 0.00 | 99 | 997.0 |
| 20260506093746 | 11 | 42 | 0.0 | 0.0 | 0.00 | 0.00 | 0.00 | 99 | 997.0 |
| 20260506092746 | 10 | 66 | 0.0 | 0.0 | 0.00 | 0.00 | 0.00 | 99 | 997.0 |
| 20260506091746 | 10 | 144 | 0.0 | 0.0 | 0.00 | 0.00 | 0.00 | 99 | 997.0 |
| 20260506090746 | 10 | 204 | 0.0 | 0.0 | 0.00 | 0.00 | 0.00 | 99 | 997.0 |
| 20260506085746 | 10 | 95 | 0.0 | 0.0 | 0.00 | 0.00 | 0.00 | 99 | 997.0 |
| 20260506084746 | 10 | 90 | 0.0 | 0.0 | 0.00 | 0.00 | 0.00 | 99 | 997.0 |
| 20260506083746 | 10 | 101 | 0.0 | 0.0 | 0.00 | 0.00 | 0.00 | 99 | 997.0 |
| 20260506082746 | 10 | 144 | 3.2 | 3.2 | 0.00 | 0.00 | 0.00 | 99 | 997.0 |
| 20260506081746 | 10 | 204 | 0.0 | 0.0 | 0.00 | 0.00 | 0.00 | 99 | 997.0 |
| 20260506080746 | 10 | 114 | 3.2 | 3.2 | 0.00 | 0.00 | 0.00 | 99 | 997.0 |
| 20260506072746 | 10 | 192 | 0.0 | 0.0 | 0.00 | 0.00 | 0.00 | 99 | 997.0 |
| 20260506071746 | 10 | 192 | 0.0 | 0.0 | 0.00 | 0.00 | 0.00 | 99 | 997.0 |
| 20260506070746 | 10 | 78 | 0.0 | 0.0 | 0.00 | 0.00 | 0.00 | 99 | 997.0 |